CW7615 Weather Reports


Display with metric or nautical units.
time (UTC)temp
F
wind
direction
speed
MPH
gust
MPH
rain 1hr
in
rain 24hr
in
rain mn
in
humidity
%
barometer
mb
20260502161035 66 146 1.0 8.0 0.00 0.00 0.00 80 1016.9
20260502160527 66 109 3.0 8.0 0.00 0.00 0.00 80 1016.8
20260502152025 66 132 3.0 5.0 0.00 0.00 0.00 80 1016.8
20260502151525 66 121 3.0 9.0 0.00 0.00 0.00 80 1017.2
20260502151025 66 96 5.0 10.0 0.00 0.00 0.00 80 1017.1
20260502150524 66 113 4.0 9.0 0.00 0.00 0.00 80 1017.2
20260502130512 65 136 3.0 8.0 0.00 0.00 0.00 85 1018.6
20260502123514 64 134 3.0 8.0 0.00 0.00 0.00 85 1018.8
20260502123012 64 127 4.0 9.0 0.00 0.00 0.00 85 1018.9
20260502122510 65 126 5.0 9.0 0.00 0.00 0.00 85 1018.7
20260502122017 64 98 2.0 9.0 0.00 0.00 0.00 84 1018.8
20260502121510 64 113 4.0 9.0 0.00 0.00 0.00 84 1018.9
20260502121010 65 108 5.0 9.0 0.00 0.00 0.00 85 1018.9
20260502120511 64 68 4.0 11.0 0.00 0.00 0.00 85 1018.9
20260502115515 65 117 7.0 11.0 0.00 0.00 0.00 84 1019.0
20260502115015 65 165 7.0 11.0 0.00 0.00 0.00 84 1019.1
20260502114509 65 114 5.0 11.0 0.00 0.00 0.00 84 1019.1
20260502114010 65 137 5.0 11.0 0.00 0.00 0.00 83 1019.2
20260502113509 65 122 6.0 11.0 0.00 0.00 0.00 83 1019.1
20260502113008 65 152 5.0 13.0 0.00 0.00 0.00 83 1019.2
20260502112509 65 117 6.0 16.0 0.00 0.00 0.00 82 1019.2
20260502112010 66 129 7.0 16.0 0.00 0.00 0.00 81 1019.2
20260502111509 66 132 6.0 13.0 0.00 0.00 0.00 81 1019.2
20260502111008 66 112 7.0 14.0 0.00 0.00 0.00 81 1019.4
20260502110508 66 122 5.0 15.0 0.00 0.00 0.00 81 1019.3
20260502110008 66 155 5.0 15.0 0.00 0.00 0.00 82 1019.4
20260502105506 66 136 6.0 14.0 0.00 0.00 0.00 82 1019.3
20260502105006 66 116 7.0 14.0 0.00 0.00 0.00 82 1019.5
20260502104505 66 101 8.0 14.0 0.00 0.00 0.00 81 1019.4
20260502104005 66 181 7.0 14.0 0.00 0.00 0.00 81 1019.4
20260502103504 66 129 5.0 13.0 0.00 0.00 0.00 81 1019.4
20260502103010 66 121 6.0 13.0 0.00 0.00 0.00 81 1019.4
20260502102503 66 155 7.0 14.0 0.00 0.00 0.00 81 1019.4
20260502102003 66 111 10.0 15.0 0.00 0.00 0.00 81 1019.5
20260502101501 66 152 6.0 14.0 0.00 0.00 0.00 82 1019.4
20260502101000 66 123 10.0 14.0 0.00 0.00 0.00 81 1019.6
20260502100501 66 146 6.0 16.0 0.00 0.00 0.00 81 1019.5
20260502091053 66 142 4.0 13.0 0.00 0.00 0.00 80 1019.2
20260502090554 65 122 6.0 10.0 0.00 0.00 0.00 80 1019.1
20260502071038 63 142 0.0 3.0 0.00 0.00 0.00 87 1019.0
20260502070541 63 144 0.0 3.0 0.00 0.00 0.00 88 1018.9
20260502070038 63 144 0.0 3.0 0.00 0.00 0.00 88 1018.9
20260502065536 63 143 0.0 3.0 0.00 0.00 0.00 88 1018.9
20260502065034 62 143 1.0 4.0 0.00 0.00 0.00 89 1019.0
20260502064538 62 124 1.0 4.0 0.00 0.00 0.00 89 1019.0
20260502064034 62 145 2.0 3.0 0.00 0.00 0.00 89 1019.0
20260502063532 62 165 0.0 3.0 0.00 0.00 0.00 89 1019.0
20260502063039 62 165 1.0 3.0 0.00 0.00 0.00 89 1019.1
20260502062528 62 165 0.0 2.0 0.00 0.00 0.00 89 1019.1
20260502062026 62 165 0.0 1.0 0.00 0.00 0.00 89 1019.1
20260502061526 62 165 0.0 1.0 0.00 0.00 0.00 89 1019.1
20260502061026 62 165 0.0 1.0 0.00 0.00 0.00 89 1019.2
20260502060526 62 165 0.0 3.0 0.00 0.00 0.00 89 1019.1
20260502060026 62 165 0.0 3.0 0.00 0.00 0.00 89 1018.9
20260502055525 62 165 1.0 5.0 0.00 0.00 0.00 89 1018.9
20260502055028 62 163 2.0 5.0 0.00 0.00 0.00 89 1018.8
20260502054524 62 128 0.0 2.0 0.00 0.00 0.00 89 1018.7
20260502054023 62 128 0.0 2.0 0.00 0.00 0.00 90 1018.5
20260502053522 62 128 0.0 3.0 0.00 0.00 0.00 90 1018.4
20260502053023 62 128 1.0 3.0 0.00 0.00 0.00 90 1018.3
20260502052523 62 128 1.0 3.0 0.00 0.00 0.00 90 1018.4
20260502052023 62 127 0.0 2.0 0.00 0.00 0.00 90 1018.3
20260502051524 62 127 0.0 3.0 0.00 0.00 0.00 90 1018.3
20260502051022 62 127 0.0 3.0 0.00 0.00 0.00 90 1018.4
20260502050522 62 127 1.0 3.0 0.00 0.00 0.00 90 1018.4
20260502050032 62 207 1.0 3.0 0.00 0.00 0.00 90 1018.4
20260502045523 62 207 1.0 3.0 0.00 0.00 0.00 90 1018.4
20260502045022 62 207 2.0 3.0 0.00 0.00 0.00 90 1018.2
20260502044522 62 186 1.0 3.0 0.00 0.00 0.00 90 1018.4
20260502044021 62 183 0.0 3.0 0.00 0.00 0.00 90 1018.4
20260502043520 62 182 0.0 2.0 0.00 0.00 0.00 90 1018.4
20260502043020 62 182 0.0 2.0 0.00 0.00 0.00 91 1018.4
20260502042520 62 182 0.0 2.0 0.00 0.00 0.00 91 1018.4
20260502042020 62 182 0.0 0.0 0.00 0.00 0.00 91 1018.4
20260502041526 62 182 0.0 0.0 0.00 0.00 0.00 90 1018.4
20260502041018 62 182 0.0 0.0 0.00 0.00 0.00 90 1018.4
20260502040518 62 182 0.0 0.0 0.00 0.00 0.00 90 1018.4
20260502040019 62 182 0.0 0.0 0.00 0.00 0.00 90 1018.5
20260502035517 62 182 0.0 0.0 0.00 0.00 0.00 90 1018.5
20260502035118 62 182 0.0 0.0 0.00 0.00 0.00 90 1018.5
20260502034520 62 182 0.0 2.0 0.00 0.00 0.00 90 1018.5
20260502034015 62 182 0.0 2.0 0.00 0.00 0.00 89 1018.7
20260502033514 62 182 0.0 0.0 0.00 0.00 0.00 89 1018.8
20260502033018 62 182 0.0 1.0 0.00 0.00 0.00 89 1018.9
20260502032513 62 182 0.0 3.0 0.00 0.00 0.00 89 1019.0
20260502032012 62 182 0.0 4.0 0.00 0.00 0.00 89 1019.0
20260502031512 62 173 0.0 4.0 0.00 0.00 0.00 89 1019.0
20260502031012 62 136 0.0 4.0 0.00 0.00 0.00 89 1019.1
20260502030512 62 148 1.0 7.0 0.00 0.00 0.00 89 1019.1
20260502030022 62 191 3.0 7.0 0.00 0.00 0.00 89 1019.1
20260502025510 62 131 1.0 4.0 0.00 0.00 0.00 89 1019.1
20260502025011 62 176 1.0 5.0 0.00 0.00 0.00 89 1019.2
20260502024510 62 167 2.0 7.0 0.00 0.00 0.00 89 1019.2
20260502024011 62 140 3.0 7.0 0.00 0.00 0.00 89 1019.2
20260502023511 62 182 1.0 4.0 0.00 0.00 0.00 89 1019.3
20260502023009 62 198 0.0 4.0 0.00 0.00 0.00 90 1019.2
20260502022509 62 188 0.0 4.0 0.00 0.00 0.00 90 1019.3
20260502022007 62 188 0.0 4.0 0.00 0.00 0.00 90 1019.4
20260502021507 62 209 2.0 7.0 0.00 0.00 0.00 90 1019.4
20260502021008 62 276 3.0 7.0 0.00 0.00 0.00 90 1019.5
20260502020506 62 180 3.0 4.0 0.00 0.00 0.00 90 1019.5
20260502020006 62 166 2.0 5.0 0.00 0.00 0.00 90 1019.5
20260502015506 62 164 2.0 7.0 0.00 0.00 0.00 90 1019.5
20260502015005 62 174 2.0 4.0 0.00 0.00 0.00 90 1019.5
20260502014503 62 212 1.0 3.0 0.00 0.00 0.00 90 1019.4
20260502014003 63 244 0.0 4.0 0.00 0.00 0.00 90 1019.6
20260502013502 63 244 0.0 4.0 0.00 0.00 0.00 91 1019.6
20260502013001 63 161 1.0 3.0 0.00 0.00 0.00 91 1019.7
20260502012600 63 160 1.0 2.0 0.00 0.00 0.00 90 1019.7
20260502012503 63 160 1.0 2.0 0.00 0.00 0.00 91 1019.8
20260502012101 63 160 0.0 1.0 0.00 0.00 0.00 90 1019.8
20260502011559 63 160 0.0 3.0 0.00 0.00 0.00 90 1019.9
20260502011057 63 160 0.0 3.0 0.00 0.00 0.00 90 1020.1
20260502010558 63 158 0.0 3.0 0.00 0.00 0.00 90 1020.1
20260502010106 63 158 0.0 3.0 0.00 0.00 0.00 90 1020.1
20260502005557 63 158 0.0 2.0 0.00 0.00 0.00 90 1020.2
20260502005057 63 158 0.0 2.0 0.00 0.00 0.00 90 1020.5
20260502004605 63 158 0.0 0.0 0.00 0.00 0.00 90 1020.7
20260502004055 63 157 0.0 0.0 0.00 0.00 0.00 90 1020.7
20260502003556 63 157 0.0 0.0 0.00 0.00 0.00 90 1020.9
20260502003056 63 157 0.0 0.0 0.00 0.00 0.00 90 1020.9
20260502002553 63 157 0.0 2.0 0.00 0.00 0.00 90 1021.1
20260502002054 63 157 0.0 5.0 0.00 0.00 0.00 90 1020.9
20260502001553 63 157 0.0 5.0 0.00 0.00 0.00 90 1020.8
20260502001053 63 159 0.0 3.0 0.00 0.00 0.00 90 1020.8
20260502000552 63 159 0.0 3.0 0.00 0.00 0.00 90 1020.7
20260502000054 63 159 1.0 4.0 0.00 0.00 0.00 89 1020.7
20260501235552 63 172 1.0 4.0 0.00 0.00 0.00 89 1020.9
20260501235051 63 244 0.0 3.0 0.00 0.00 0.00 89 1021.0
20260501234551 63 271 0.0 0.0 0.00 0.00 0.00 89 1020.9
20260501234051 63 271 0.0 1.0 0.00 0.00 0.00 89 1020.9
20260501233550 63 309 0.0 1.0 0.00 0.00 0.00 89 1021.0
20260501233051 63 309 0.0 1.0 0.00 0.00 0.00 89 1021.1
20260501232550 63 309 0.0 1.0 0.00 0.00 0.00 89 1021.2
20260501232048 63 309 0.0 2.0 0.00 0.00 0.00 89 1021.1
20260501231522 63 309 0.0 3.0 0.00 0.00 0.00 89 1021.0
20260501231049 63 309 0.0 3.0 0.00 0.00 0.00 89 1021.2
20260501230552 63 311 0.0 2.0 0.00 0.00 0.00 89 1020.9
20260501230048 63 311 0.0 2.0 0.00 0.00 0.00 89 1021.0
20260501225548 63 311 0.0 1.0 0.00 0.00 0.00 89 1021.2
20260501225047 63 311 0.0 1.0 0.00 0.00 0.00 89 1021.1
20260501224551 63 311 0.0 1.0 0.00 0.00 0.00 88 1021.0
20260501224046 63 311 0.0 2.0 0.00 0.00 0.00 88 1020.9
20260501223546 63 311 0.0 2.0 0.00 0.00 0.00 88 1020.9
20260501223047 63 311 0.0 2.0 0.00 0.00 0.00 88 1021.0
20260501222544 63 311 0.0 2.0 0.00 0.00 0.00 88 1021.0
20260501222143 63 311 0.0 1.0 0.00 0.00 0.00 88 1020.9
20260501221544 63 311 0.0 1.0 0.00 0.00 0.00 88 1020.9
20260501221043 63 311 0.0 1.0 0.00 0.00 0.00 87 1020.8
20260501220542 63 311 0.0 2.0 0.00 0.00 0.00 87 1020.7
20260501220049 63 311 0.0 2.0 0.00 0.00 0.00 87 1020.8
20260501215542 63 310 0.0 1.0 0.00 0.00 0.00 87 1020.8
20260501215041 63 310 0.0 2.0 0.00 0.00 0.00 87 1020.7
20260501214541 63 310 0.0 2.0 0.00 0.00 0.00 87 1020.7
20260501214140 63 325 0.0 3.0 0.00 0.00 0.00 86 1020.7
20260501213540 63 326 1.0 3.0 0.00 0.00 0.00 86 1020.6
20260501213048 63 5 0.0 2.0 0.00 0.00 0.00 86 1020.7
20260501212540 63 5 0.0 2.0 0.00 0.00 0.00 86 1020.6
20260501212042 63 5 0.0 1.0 0.00 0.00 0.00 85 1020.6
20260501211539 63 5 0.0 1.0 0.00 0.00 0.00 85 1020.6
20260501211038 63 5 0.0 1.0 0.00 0.00 0.00 85 1020.6
20260501210537 64 5 0.0 1.0 0.00 0.00 0.00 85 1020.6
20260501210043 64 5 0.0 0.0 0.00 0.00 0.00 84 1020.5
20260501205540 64 5 0.0 0.0 0.00 0.00 0.00 84 1020.4
20260501205038 64 5 0.0 1.0 0.00 0.00 0.00 83 1020.5
20260501204538 64 5 0.0 1.0 0.00 0.00 0.00 83 1020.5
20260501204039 64 5 0.0 5.0 0.00 0.00 0.00 83 1020.5
20260501203535 64 5 2.0 5.0 0.00 0.00 0.00 83 1020.5
20260501203037 64 360 2.0 4.0 0.00 0.00 0.00 83 1020.4
20260501202536 64 349 2.0 5.0 0.00 0.00 0.00 83 1020.3
20260501202038 64 360 3.0 5.0 0.00 0.00 0.00 83 1020.4
20260501201535 64 347 2.0 4.0 0.00 0.00 0.00 83 1020.4
20260501201034 64 340 2.0 4.0 0.00 0.00 0.00 84 1020.3
20260501200537 64 219 0.0 2.0 0.00 0.00 0.00 83 1020.1
20260501200034 64 219 0.0 2.0 0.00 0.00 0.00 83 1020.1
20260501195534 64 219 0.0 0.0 0.00 0.00 0.00 83 1020.0
20260501195035 64 219 0.0 2.0 0.00 0.00 0.00 83 1020.0
20260501194538 65 219 0.0 2.0 0.00 0.00 0.00 83 1019.8
20260501194034 65 193 0.0 3.0 0.00 0.00 0.00 83 1019.8
20260501193532 65 193 0.0 3.0 0.00 0.00 0.00 83 1019.7
20260501193034 65 193 1.0 3.0 0.00 0.00 0.00 83 1019.6
20260501192533 65 193 1.0 3.0 0.00 0.00 0.00 82 1019.6
20260501192033 65 127 1.0 3.0 0.00 0.00 0.00 81 1019.5
20260501191533 66 126 0.0 2.0 0.00 0.00 0.00 81 1019.3
20260501191033 66 126 0.0 1.0 0.00 0.00 0.00 81 1019.3
20260501190535 66 126 0.0 1.0 0.00 0.00 0.00 80 1019.3
20260501190032 66 126 0.0 1.0 0.00 0.00 0.00 80 1019.4
20260501185532 66 126 0.0 2.0 0.00 0.00 0.00 80 1019.3
20260501185032 66 126 0.0 3.0 0.00 0.00 0.00 80 1019.3
20260501184532 66 126 0.0 3.0 0.00 0.00 0.00 80 1019.3
20260501184033 66 126 0.0 3.0 0.00 0.00 0.00 80 1019.2
20260501183533 67 126 1.0 3.0 0.00 0.00 0.00 79 1019.2
20260501183031 67 126 1.0 3.0 0.00 0.00 0.00 79 1019.1
20260501182535 67 126 1.0 3.0 0.00 0.00 0.00 79 1019.3
20260501182032 67 126 0.0 2.0 0.00 0.00 0.00 79 1019.3
20260501181532 67 126 0.0 2.0 0.00 0.00 0.00 78 1019.2
20260501181031 67 126 1.0 4.0 0.00 0.00 0.00 78 1019.2
20260501180531 67 126 1.0 4.0 0.00 0.00 0.00 78 1019.1
20260501180044 67 123 1.0 4.0 0.00 0.00 0.00 78 1019.2
20260501175530 67 123 3.0 4.0 0.00 0.00 0.00 77 1019.2
20260501175030 68 121 1.0 5.0 0.00 0.00 0.00 77 1019.4
20260501174535 68 115 2.0 5.0 0.00 0.00 0.00 77 1019.2
20260501174030 68 150 2.0 5.0 0.00 0.00 0.00 77 1019.2
20260501173530 68 135 1.0 5.0 0.00 0.00 0.00 77 1019.2
20260501173030 68 130 2.0 5.0 0.00 0.00 0.00 77 1019.2
20260501172529 68 169 1.0 5.0 0.00 0.00 0.00 76 1019.2
20260501172029 68 144 1.0 5.0 0.00 0.00 0.00 77 1019.2
20260501171529 68 172 1.0 5.0 0.00 0.00 0.00 77 1019.3
20260501171030 68 182 2.0 6.0 0.00 0.00 0.00 77 1019.4
20260501170532 68 152 2.0 5.0 0.00 0.00 0.00 77 1019.4
20260501170035 68 121 2.0 7.0 0.00 0.00 0.00 76 1019.4
20260501165528 68 134 2.0 6.0 0.00 0.00 0.00 77 1019.5
20260501165029 68 170 2.0 6.0 0.00 0.00 0.00 77 1019.5
20260501164529 68 144 1.0 5.0 0.00 0.00 0.00 78 1019.5
20260501164028 68 150 2.0 5.0 0.00 0.00 0.00 78 1019.6
20260501163530 67 125 3.0 8.0 0.00 0.00 0.00 78 1019.5
20260501163027 67 121 3.0 9.0 0.00 0.00 0.00 78 1019.6
20260501162527 67 171 3.0 9.0 0.00 0.00 0.00 78 1019.5
20260501162030 67 119 5.0 11.0 0.00 0.00 0.00 78 1019.6
20260501161535 68 135 5.0 11.0 0.00 0.00 0.00 78 1019.6